SIM037 EDXW-EHAM

Flight info

Callsign SIM037
Flight time N/A
Altitude 16000
Route OLDIP DCT ROCZO DCT LAZOQ P174 KUBAT T200 BLUFA
Aircraft DC6/M-SDFGIRWYZ/LB1D1

Departure

Time 2026-04-27 20:06
Airport Westerland Sylt Airport (EDXW)

Arrival

Time N/A
Airport Amsterdam Airport Schiphol (EHAM)
Time Latitude Longitude Altitude Speed Heading
2026-04-27 18:46 54.91288 8.32497 27 ft 0 kts 250°
2026-04-27 19:54 54.91291 8.32508 27 ft 2 kts 232°
2026-04-27 19:55 54.91298 8.32516 27 ft 0 kts 199°
2026-04-27 19:55 54.91289 8.32512 27 ft 4 kts 185°
2026-04-27 19:55 54.91262 8.32522 27 ft 6 kts 159°
2026-04-27 19:56 54.91252 8.32529 27 ft 0 kts 154°
2026-04-27 19:57 54.91246 8.32535 27 ft 7 kts 153°
2026-04-27 19:58 54.91203 8.32576 27 ft 6 kts 152°
2026-04-27 19:58 54.91171 8.32608 27 ft 5 kts 134°
2026-04-27 19:58 54.91129 8.32660 28 ft 15 kts 148°
2026-04-27 19:58 54.91065 8.32857 29 ft 24 kts 110°
2026-04-27 19:59 54.90967 8.33079 33 ft 27 kts 139°
2026-04-27 19:59 54.90782 8.33221 35 ft 31 kts 171°
2026-04-27 19:59 54.90584 8.33243 34 ft 24 kts 177°
2026-04-27 19:59 54.90433 8.33321 34 ft 22 kts 152°
2026-04-27 20:00 54.90324 8.33489 32 ft 21 kts 131°
2026-04-27 20:00 54.90266 8.33699 33 ft 19 kts 101°
2026-04-27 20:00 54.90241 8.33947 33 ft 21 kts 98°
2026-04-27 20:00 54.90244 8.34224 33 ft 27 kts 79°
2026-04-27 20:01 54.90277 8.34536 35 ft 25 kts 78°
2026-04-27 20:01 54.90307 8.34807 35 ft 21 kts 79°
2026-04-27 20:01 54.90321 8.34992 35 ft 14 kts 84°
2026-04-27 20:01 54.90327 8.35041 35 ft 0 kts 64°
2026-04-27 20:02 54.90333 8.35061 35 ft 8 kts 63°
2026-04-27 20:03 54.90368 8.35141 36 ft 7 kts 42°
2026-04-27 20:03 54.90394 8.35171 37 ft 2 kts
2026-04-27 20:03 54.90410 8.35168 37 ft 0 kts 345°
2026-04-27 20:04 54.90413 8.35167 37 ft 3 kts 344°
2026-04-27 20:04 54.90502 8.35082 36 ft 28 kts 325°
2026-04-27 20:04 54.90635 8.34904 36 ft 46 kts 322°
2026-04-27 20:05 54.91166 8.34233 37 ft 93 kts 324°
2026-04-27 20:05 54.91746 8.33464 117 ft 108 kts 316°
2026-04-27 20:05 54.92279 8.32540 249 ft 112 kts 312°
2026-04-27 20:05 54.92766 8.31476 405 ft 116 kts 307°
2026-04-27 20:06 54.93315 8.30278 466 ft 129 kts 310°
2026-04-27 20:06 54.94043 8.29520 740 ft 125 kts 350°
2026-04-27 20:06 54.94940 8.29393 905 ft 130 kts 342°
2026-04-27 20:06 54.95583 8.28461 1207 ft 114 kts 298°
2026-04-27 20:07 54.96125 8.27527 1317 ft 113 kts 322°
2026-04-27 20:07 54.96865 8.27099 1445 ft 107 kts 335°
2026-04-27 20:07 54.97153 8.26789 1571 ft 97 kts 305°